Weather History for Ypsilanti, MI

Change the Weather History Date:

Thursday, June 13, 2013

  Actual Average Record
Temperature  
Mean Temperature 72 °F -  
Max Temperature 81 °F 80 °F 93 °F (1988)
Min Temperature 64 °F 57 °F 44 °F (1985)
Cooling Degree Days 7    
Growing Degree Days 22 (Base 50)    
Moisture  
Dew Point 59 °F    
Average Humidity 69    
Maximum Humidity 88    
Minimum Humidity 40    
Precipitation  
Precipitation 1.04 in - - ()
Sea Level Pressure  
Sea Level Pressure 29.70 in    
Wind  
Wind Speed 11 mph (North)    
Max Wind Speed 20 mph    
Max Gust Speed 26 mph    
Visibility 8 miles    
Events Rain    
Averages and records for this station are not official NWS values.
T = Trace of Precipitation, MM = Missing Value Source: NWS Daily Summary

Daily Weather History Graph

Daily Weather History Graph

Search for Another Location

Airport:

Trip Planner

Search our weather history database for the weather conditions in past years. The results will help you decide how hot, cold, wet, or windy it might be!

Date:

Astronomy

Jun. 13, 2013 Rise Set
Actual Time 5:57 AM EDT 9:11 PM EDT
Civil Twilight 5:22 AM EDT 9:46 PM EDT
Nautical Twilight 4:38 AM EDT 10:30 PM EDT
Astronomical Twilight 3:44 AM EDT 11:24 PM EDT
Moon 10:37 AM EDT (6/13) No Moon Set
Length of Visible Light 16h 23m
Length of Day
15h 14m
Waxing Crescent, 21% of the Moon is Illuminated
Jun 13
Waxing Crescent
Jun 16
First Quarter
Jun 23
Full
Jun 30
Last Quarter
Jul 8
New

Hourly Weather History & Observations

Time (EDT) Temp. Heat Index Dew Point Humidity Pressure Visibility Wind Dir Wind Speed Gust Speed Precip Events Conditions
12:53 AM 69.1 °F - 64.0 °F 84% 29.61 in 4.0 mi ENE 10.4 mph - 0.10 in Rain Rain
1:15 AM 69.8 °F - 64.4 °F 83% 29.68 in 2.5 mi West 13.8 mph - 0.16 in Rain Heavy Rain
1:24 AM 69.8 °F - 64.4 °F 83% 29.68 in 1.8 mi NW 13.8 mph - 0.34 in Rain Heavy Rain
1:32 AM 69.8 °F - 62.6 °F 78% 29.64 in 1.8 mi NE 15.0 mph - 0.59 in Rain Heavy Rain
1:42 AM 69.8 °F - 64.4 °F 83% 29.64 in 3.0 mi East 6.9 mph - 0.67 in Rain Rain
1:53 AM 68.0 °F - 64.0 °F 87% 29.61 in 5.0 mi ENE 4.6 mph - 0.70 in Rain Rain
2:53 AM 66.9 °F - 62.1 °F 84% 29.52 in 5.0 mi ENE 12.7 mph - 0.14 in Rain Light Rain
3:14 AM 66.2 °F - 62.6 °F 88% 29.54 in 6.0 mi ENE 15.0 mph 24.2 mph 0.02 in Rain Light Rain
3:42 AM 66.2 °F - 62.6 °F 88% 29.57 in 10.0 mi Variable 5.8 mph - 0.03 in   Overcast
3:53 AM 66.9 °F - 62.1 °F 84% 29.55 in 10.0 mi Calm Calm - 0.03 in   Overcast
4:53 AM 66.9 °F - 62.1 °F 84% 29.56 in 8.0 mi North 10.4 mph - 0.02 in Rain Light Rain
5:41 AM 66.2 °F - 62.6 °F 88% 29.61 in 8.0 mi North 6.9 mph - 0.02 in Rain Light Rain
5:53 AM 66.9 °F - 62.1 °F 84% 29.61 in 9.0 mi North 8.1 mph - 0.02 in   Overcast
6:43 AM 66.2 °F - 57.2 °F 73% 29.65 in 10.0 mi North 13.8 mph 23.0 mph 0.00 in Rain Light Rain
6:53 AM 64.9 °F - 57.0 °F 75% 29.65 in 10.0 mi North 12.7 mph - 0.01 in Rain Light Rain
7:53 AM 64.0 °F - 57.9 °F 80% 29.66 in 10.0 mi North 9.2 mph - 0.01 in Rain Light Rain
8:53 AM 64.9 °F - 57.9 °F 78% 29.69 in 10.0 mi North 8.1 mph - N/A   Overcast
9:53 AM 68.0 °F - 59.0 °F 73% 29.71 in 10.0 mi NNW 10.4 mph - N/A   Overcast
10:53 AM 73.9 °F - 57.9 °F 57% 29.71 in 10.0 mi NNW 10.4 mph - 0.01 in   Clear
11:53 AM 77.0 °F - 57.0 °F 50% 29.73 in 10.0 mi North 16.1 mph 19.6 mph N/A   Clear
12:53 PM 77.0 °F - 54.0 °F 45% 29.75 in 10.0 mi NNW 19.6 mph 26.5 mph N/A   Partly Cloudy
1:53 PM 78.1 °F - 54.0 °F 43% 29.76 in 10.0 mi NNW 12.7 mph 23.0 mph N/A   Clear
2:53 PM 80.1 °F 80.4 °F 57.0 °F 45% 29.78 in 10.0 mi NNW 15.0 mph 20.7 mph N/A   Partly Cloudy
3:53 PM 80.1 °F 80.1 °F 55.0 °F 42% 29.79 in 10.0 mi NNW 17.3 mph 26.5 mph N/A   Scattered Clouds
4:53 PM 80.1 °F 80.0 °F 54.0 °F 40% 29.80 in 10.0 mi North 12.7 mph - N/A   Partly Cloudy
5:53 PM 79.0 °F - 53.1 °F 40% 29.81 in 10.0 mi North 15.0 mph - N/A   Clear
6:53 PM 79.0 °F - 55.0 °F 44% 29.82 in 10.0 mi North 11.5 mph - N/A   Scattered Clouds
7:53 PM 73.9 °F - 55.0 °F 52% 29.84 in 10.0 mi North 5.8 mph - N/A   Clear
8:53 PM 71.1 °F - 57.9 °F 63% 29.86 in 10.0 mi NNW 3.5 mph - N/A   Scattered Clouds
9:53 PM 70.0 °F - 57.9 °F 65% 29.88 in 10.0 mi NW 8.1 mph - N/A   Partly Cloudy
10:53 PM 66.9 °F - 57.9 °F 73% 29.90 in 10.0 mi NNW 5.8 mph - N/A   Clear
11:53 PM 68.0 °F - 59.0 °F 73% 29.91 in 10.0 mi NNW 6.9 mph - N/A   Overcast